St. George, UT

2:45 AM MDT on April 28, 2017 (GMT -0600)
Saint George Municipal

Weather History for KSGU - March, 2014

Change the Weather History Date:

Friday, March 21, 2014

  Actual Average Record
Temperature  
Mean Temperature 56 °F -  
Max Temperature 71 °F 70 °F 91 °F (2004)
Min Temperature 42 °F 38 °F 24 °F (1955)
Degree Days  
Heating Degree Days 8    
Growing Degree Days 6 (Base 50)    
Moisture  
Dew Point 14 °F    
Average Humidity 21    
Maximum Humidity 34    
Minimum Humidity 11    
Precipitation  
Precipitation 0.00 in - - ()
Sea Level Pressure  
Sea Level Pressure 29.93 in    
Wind  
Wind Speed 2 mph (SSW)    
Max Wind Speed 13 mph    
Max Gust Speed 16 mph    
Visibility 10 miles    
Events      
Averages and records for this station are not official NWS values.
T = Trace of Precipitation, MM = Missing Value Source: NWS Daily Summary

Daily Weather History Graph

Daily Weather History Graph

Search for Another Location

Airport or City:

Trip Planner

Search our weather history database for the weather conditions in past years. The results will help you decide how hot, cold, wet, or windy it might be!

Date:

Astronomy

Mar. 21, 2014 Rise Set
Actual Time 7:35 AM MDT 7:46 PM MDT
Civil Twilight 7:10 AM MDT 8:12 PM MDT
Nautical Twilight 6:39 AM MDT 8:43 PM MDT
Astronomical Twilight 6:09 AM MDT 9:13 PM MDT
Moon 12:03 AM MDT (3/21) 10:37 AM MDT (3/21)
Length of Visible Light 13h 02m
Length of Day
12h 10m
Waning Gibbous, 75% of the Moon is Illuminated
Mar 21
Waning Gibbous
Mar 23
Last Quarter
Mar 30
New
Apr 7
First Quarter
Apr 15
Full

Hourly Weather History & Observations

Time (MDT) Temp. Windchill Dew Point Humidity Pressure Visibility Wind Dir Wind Speed Gust Speed Precip Events Conditions
12:15 AM 53.6 °F - 10.4 °F 18% 29.96 in 10.0 mi Calm Calm - N/A   Clear
12:35 AM 51.8 °F - 12.2 °F 21% 29.96 in 10.0 mi Calm Calm - N/A   Clear
12:55 AM 51.8 °F - 10.4 °F 19% 29.96 in 10.0 mi Calm Calm - N/A   Clear
1:15 AM 51.8 °F - 10.4 °F 19% 29.96 in 10.0 mi SE 3.5 mph - N/A   Clear
1:35 AM 51.8 °F - 10.4 °F 19% 29.96 in 10.0 mi Calm Calm - N/A   Clear
1:55 AM 51.8 °F - 10.4 °F 19% 29.96 in 10.0 mi SSE 4.6 mph - N/A   Clear
2:15 AM 48.2 °F - 10.4 °F 22% 29.96 in 10.0 mi ESE 3.5 mph - N/A   Clear
2:35 AM 48.2 °F - 12.2 °F 24% 29.96 in 10.0 mi Calm Calm - N/A   Clear
2:55 AM 46.4 °F - 12.2 °F 25% 29.96 in 10.0 mi Calm Calm - N/A   Clear
3:15 AM 48.2 °F - 12.2 °F 24% 29.95 in 10.0 mi East 9.2 mph - N/A   Clear
3:35 AM 50.0 °F - 12.2 °F 22% 29.95 in 10.0 mi ENE 3.5 mph - N/A   Clear
3:55 AM 48.2 °F - 10.4 °F 22% 29.95 in 10.0 mi Calm Calm - N/A   Clear
4:15 AM 48.2 °F - 12.2 °F 24% 29.95 in 10.0 mi SSE 3.5 mph - N/A   Clear
4:35 AM 46.4 °F - 12.2 °F 25% 29.95 in 10.0 mi Calm Calm - N/A   Clear
4:55 AM 46.4 °F - 12.2 °F 25% 29.95 in 10.0 mi Calm Calm - N/A   Clear
5:15 AM 44.6 °F - 12.2 °F 27% 29.95 in 10.0 mi Calm Calm - N/A   Clear
5:35 AM 44.6 °F - 15.8 °F 31% 29.95 in 10.0 mi Calm Calm - N/A   Clear
5:55 AM 44.6 °F - 14.0 °F 29% 29.95 in 10.0 mi Calm Calm - N/A   Clear
6:15 AM 44.6 °F 43.1 °F 14.0 °F 29% 29.95 in 10.0 mi SSW 3.5 mph - N/A   Clear
6:35 AM 44.6 °F - 14.0 °F 29% 29.95 in 10.0 mi Calm Calm - N/A   Clear
6:55 AM 42.8 °F - 12.2 °F 29% 29.95 in 10.0 mi Calm Calm - N/A   Clear
7:15 AM 42.8 °F - 14.0 °F 31% 29.95 in 10.0 mi Calm Calm - N/A   Clear
7:35 AM 42.8 °F 41.1 °F 14.0 °F 31% 29.96 in 10.0 mi SSW 3.5 mph - N/A   Clear
7:55 AM 42.8 °F 41.1 °F 14.0 °F 31% 29.97 in 10.0 mi SSE 3.5 mph - N/A   Clear
8:15 AM 42.8 °F - 15.8 °F 34% 29.97 in 10.0 mi Calm Calm - N/A   Clear
8:35 AM 42.8 °F 40.1 °F 15.8 °F 34% 29.98 in 10.0 mi South 4.6 mph - N/A   Clear
8:55 AM 44.6 °F - 15.8 °F 31% 29.98 in 10.0 mi Calm Calm - N/A   Clear
9:15 AM 44.6 °F - 14.0 °F 29% 29.98 in 10.0 mi Calm Calm - N/A   Clear
9:35 AM 46.4 °F - 15.8 °F 29% 29.99 in 10.0 mi Calm Calm - N/A   Clear
9:55 AM 48.2 °F - 15.8 °F 27% 29.99 in 10.0 mi North 4.6 mph - N/A   Clear
10:15 AM 51.8 °F - 15.8 °F 24% 30.00 in 10.0 mi Calm Calm - N/A   Clear
10:35 AM 53.6 °F - 15.8 °F 22% 30.00 in 10.0 mi Calm Calm - N/A   Clear
10:55 AM 55.4 °F - 15.8 °F 21% 30.00 in 10.0 mi West 4.6 mph - N/A   Clear
11:15 AM 55.4 °F - 15.8 °F 21% 30.00 in 10.0 mi West 3.5 mph - N/A   Clear
11:35 AM 55.4 °F - 15.8 °F 21% 29.99 in 10.0 mi NW 5.8 mph - N/A   Clear
11:55 AM 55.4 °F - 15.8 °F 21% 30.00 in 10.0 mi NW 4.6 mph - N/A   Clear
12:15 PM 57.2 °F - 17.6 °F 21% 29.99 in 10.0 mi Calm Calm - N/A   Clear
12:35 PM 57.2 °F - 17.6 °F 21% 29.99 in 10.0 mi NNE 3.5 mph - N/A   Clear
12:55 PM 60.8 °F - 17.6 °F 19% 29.98 in 10.0 mi Calm Calm - N/A   Clear
1:15 PM 60.8 °F - 17.6 °F 19% 29.97 in 10.0 mi Calm Calm - N/A   Clear
1:35 PM 62.6 °F - 17.6 °F 18% 29.97 in 10.0 mi NNE 5.8 mph - N/A   Clear
1:55 PM 62.6 °F - 17.6 °F 18% 29.95 in 10.0 mi Calm Calm - N/A   Clear
2:15 PM 62.6 °F - 17.6 °F 18% 29.94 in 10.0 mi West 3.5 mph - N/A   Clear
2:35 PM 64.4 °F - 17.6 °F 16% 29.93 in 10.0 mi Calm Calm - N/A   Clear
2:55 PM 66.2 °F - 17.6 °F 15% 29.92 in 10.0 mi WSW 4.6 mph - N/A   Clear
3:15 PM 66.2 °F - 17.6 °F 15% 29.91 in 10.0 mi West 4.6 mph - N/A   Clear
3:35 PM 66.2 °F - 17.6 °F 15% 29.90 in 10.0 mi Calm Calm - N/A   Clear
3:55 PM 69.8 °F - 17.6 °F 14% 29.90 in 10.0 mi Calm Calm - N/A   Clear
4:15 PM 69.8 °F - 17.6 °F 14% 29.89 in 10.0 mi WSW 4.6 mph - N/A   Clear
4:35 PM 69.8 °F - 17.6 °F 14% 29.88 in 10.0 mi NW 4.6 mph - N/A   Clear
4:55 PM 69.8 °F - 17.6 °F 14% 29.87 in 10.0 mi WSW 4.6 mph - N/A   Clear
5:15 PM 69.8 °F - 17.6 °F 14% 29.86 in 10.0 mi WSW 8.1 mph - N/A   Clear
5:35 PM 71.6 °F - 17.6 °F 13% 29.86 in 10.0 mi West 8.1 mph - N/A   Clear
5:55 PM 71.6 °F - 15.8 °F 12% 29.85 in 10.0 mi WSW 12.7 mph 16.1 mph N/A   Clear
6:15 PM 71.6 °F - 15.8 °F 12% 29.85 in 10.0 mi WSW 10.4 mph - N/A   Clear
6:35 PM 71.6 °F - 15.8 °F 12% 29.85 in 10.0 mi West 10.4 mph - N/A   Clear
6:55 PM 69.8 °F - 14.0 °F 12% 29.85 in 10.0 mi WSW 9.2 mph - N/A   Clear
7:15 PM 69.8 °F - 14.0 °F 12% 29.85 in 10.0 mi West 8.1 mph - N/A   Clear
7:35 PM 69.8 °F - 12.2 °F 11% 29.85 in 10.0 mi West 6.9 mph - N/A   Clear
7:55 PM 66.2 °F - 12.2 °F 12% 29.85 in 10.0 mi West 5.8 mph - N/A   Clear
8:15 PM 64.4 °F - 12.2 °F 13% 29.85 in 10.0 mi South 4.6 mph - N/A   Clear
8:35 PM 60.8 °F - 12.2 °F 15% 29.86 in 10.0 mi South 3.5 mph - N/A   Clear
8:55 PM 62.6 °F - 12.2 °F 14% 29.86 in 10.0 mi SE 3.5 mph - N/A   Clear
9:15 PM 57.2 °F - 12.2 °F 17% 29.87 in 10.0 mi SE 5.8 mph - N/A   Clear
9:35 PM 55.4 °F - 14.0 °F 20% 29.87 in 10.0 mi SE 9.2 mph - N/A   Clear
9:55 PM 55.4 °F - 15.8 °F 21% 29.87 in 10.0 mi SE 5.8 mph - N/A   Clear
10:15 PM 55.4 °F - 14.0 °F 20% 29.87 in 10.0 mi SE 6.9 mph - N/A   Clear
10:35 PM 57.2 °F - 14.0 °F 18% 29.87 in 10.0 mi Calm Calm - N/A   Clear
10:55 PM 57.2 °F - 12.2 °F 17% 29.88 in 10.0 mi East 5.8 mph - N/A   Clear
11:15 PM 55.4 °F - 12.2 °F 18% 29.88 in 10.0 mi ESE 4.6 mph - N/A   Clear
11:35 PM 55.4 °F - 14.0 °F 20% 29.88 in 10.0 mi ESE 4.6 mph - N/A   Clear
11:55 PM 55.4 °F - 15.8 °F 21% 29.88 in 10.0 mi ESE 10.4 mph - N/A   Clear